Location: Home
(42.5358°N, 72.7383°W)
Time: 09:13:53
(UTC-05:00)

deb Explorer IX - Pass Details

Date: 06 December 2021
Orbit: 544 x 1082 km, 38.8° (Epoch: 19 January)

Event Time Altitude Azimuth Distance (km) Brightness Sun altitude
Rises 14:37:05 0° 265° (W) 2,729 ? 13.4°
Reaches altitude 10° 14:40:58 10° 229° (SW) 1,800 ? 12.9°
Maximum altitude 14:42:06 11° 213° (SSW) 1,735 ? 12.8°
Drops below altitude 10° 14:43:14 10° 196° (SSW) 1,799 ? 12.7°
Sets 14:47:07 0° 160° (SSE) 2,722 ? 12.2°
